Terminal Aerodrome Forecast
Issued by NWS Cleveland, OH

Home | Current Version | Previous Version | Graphics & Text | Print | Product List | Glossary On
Versions: 1 2 3 4 5 6 7 8 9 10 11 12 13 14 15 16 17 18 19 20 21 22 23
000
FTUS41 KCLE 251100
TAFYNG
TAF
KYNG 251122Z 2512/2612 23010KT P6SM OVC025
     FM251700 24012G21KT P6SM OVC035
     FM260000 25004KT P6SM OVC035
     FM260500 VRB03KT P6SM SCT035=

USA.gov is the U.S. government's official web portal to all federal, state and local government web resources and services.